Location: ??????
(38.0677°N, 22.9870°E)
Time: 11:07:00
(UTC+00:00)

ATLAS CENTAUR R/B - Pass Details

Date: 23 May 2024
Orbit: 208 x 2369 km, 57.2° (Epoch: 24 June)

Event Time Altitude Azimuth Distance (km) Brightness Sun altitude
Rises 00:15:55 0° 315° (NW) 5,902 7.2 -25.8°
Reaches altitude 10° 00:20:24 10° 309° (NW) 4,673 6.6 -25.3°
Maximum altitude 00:31:09 37° 249° (WSW) 2,323 4.5 -24.2°
Enters shadow 00:32:18 36° 235° (SW) 2,270 4.4 -24.1°
